Regional Weather Roundup
Issued by NWS

Home | Current Version | Previous Version | Graphics & Text | Print | Product List | Glossary On
Versions: 1 2 3 4 5 6 7 8 9 10 11 12 13 14 15 16 17 18 19 20 21 22 23 24 25 26 27 28 29 30 31 32 33 34 35 36 37 38 39 40 41 42 43 44 45 46 47 48 49 50
000
ASUS43 KOAX 222302
RWRNE

WEATHER ROUNDUP FOR NEBRASKA
NATIONAL WEATHER SERVICE OMAHA NE
500 PM CST MON DEC 22 2014

NOTES: SATELLITE DATA IS BEING USED TO AUGMENT CLOUD COVER ABOVE
       12000 FEET.
       "FAIR" INDICATES FEW OR NO CLOUDS BELOW 12,000 FEET WITH NO
       SIGNIFICANT WEATHER AND/OR OBSTRUCTIONS TO VISIBILITY.

  * THESE STATIONS DO NOT REPORT WEATHER SUCH AS RAIN...SNOW OR FOG.

NEZ001>004-019>022-054>056-230000-
NEBRASKA PANHANDLE

CITY           SKY/WX    TMP DP  RH WIND       PRES   REMARKS
SCOTTSBLUFF    PTCLDY    34  25  69 NW18G26   29.66R WCI  23
ALLIANCE       PTCLDY    37  22  54 NW30G36   29.59S WCI  24
CHADRON        CLOUDY    40  22  48 NW23G33   29.62R WCI  30
SIDNEY         PTCLDY    31  26  82 NW13      29.65F WCI  21
$$

NEZ057>060-069>072-079>082-230000-
SOUTHWEST NEBRASKA

CITY           SKY/WX    TMP DP  RH WIND       PRES   REMARKS
NORTH PLATTE   CLOUDY    43  23  45 NW20      29.54R
IMPERIAL       PTCLDY    40  23  50 NW17G24   29.61R WCI  31
MCCOOK         PTCLDY    44  24  45 NW15G28   29.57R
$$

NEZ005>010-023>029-035>040-094-230000-
NORTH CENTRAL NEBRASKA

CITY           SKY/WX    TMP DP  RH WIND       PRES   REMARKS
VALENTINE      LGT SNOW  33  30  88 NW20G32   29.51R FOG     WCI  21
BROKEN BOW     MOCLDY    38  31  76 N20       29.51R WCI  28
$$

NEZ041-046>049-061>064-073>077-083>087-230000-
SOUTH CENTRAL NEBRASKA

CITY           SKY/WX    TMP DP  RH WIND       PRES   REMARKS
GRAND ISLAND   CLOUDY    41  29  62 NW21G31   29.50R
HASTINGS       CLOUDY    44  29  55 N14G24    29.49R
KEARNEY *      CLOUDY    43  28  56 W10       29.51R
$$

NEZ011>018-030>034-042>045-230000-
NORTHEAST NEBRASKA

CITY           SKY/WX    TMP DP  RH WIND       PRES   REMARKS
NORFOLK        LGT RAIN  38  36  92 NW13      29.45R WCI  30
BLAIR          LGT RAIN  42  40  93 NW6       29.41S
COLUMBUS *     CLOUDY    39  34  81 NW14      29.47R WCI  31
TEKAMAH        LGT RAIN  42  40  92 NW8       29.42R
$$

NEZ050>053-065>068-078-088>093-230000-
SOUTHEAST NEBRASKA

CITY           SKY/WX    TMP DP  RH WIND       PRES   REMARKS
LINCOLN        CLOUDY    43  37  79 NW12      29.47R
OMAHA EPPLEY   LGT RAIN  42  40  92 NW10      29.43R FOG
FALLS CITY     LGT RAIN  44  32  62 W12       29.44R
$$

NEZ044-045-051>053-067-230000-
OMAHA AREA

CITY           SKY/WX    TMP DP  RH WIND       PRES   REMARKS
OMAHA EPPLEY   LGT RAIN  42  40  92 NW10      29.43R FOG
BLAIR          LGT RAIN  42  40  93 NW6       29.41S
OFFUTT AFB     LGT RAIN  42  40  93 NW8       29.42R
$$


USA.gov is the U.S. government's official web portal to all federal, state and local government web resources and services.